Voltar ao catálogo

GEESAT 6-10

AtivoCiênciaLEO
NORAD 65722·PAYLOAD·🇨🇳 China

Lançado Sep 24, 2025 de Yellow Sea Launch Area

Loading…

Próximas Passagens (próximas 24 horas)

TLE

AtualizadoSource: Space-Track

Época: Sep 13, 2026, 17:00 UTC

1 65722U 25214L   26256.70862153  .00001014  00000-0  14904-3 0  9996
2 65722  49.9894 258.5248 0011568 216.9291 143.0852 14.83569304 52645

Acompanhe GEESAT 6-10 em tempo real com AllMySat

Download on the App Store